www.pogodaiklimat.ru

Погода и климат >> Архив погоды >> Кот-д'Ивуар >> Ганьоа


ПОГОДА в Ганьоа

  • Прогноз погоды в Ганьоа
  • Монитор погоды в Ганьоа

АРХИВ ПОГОДЫ в Ганьоа

Время (UTC), дата Ветер
(напр.,м/с)
 
Видим.   Явления Облачность Т
(С)
Тd
(С)
f
(%)
Тe
(С)
Тes
(С)
Комфортность P
(гПа)
Po
(гПа)
Тmin
(С)
Tmax
(С)
R
(мм)
R24
(мм)
S
(см)
00 17.01 ЮЗ 1 6000 м 9/9 330 м
[Sc]
+26.0 +24.6 92 +37 +37 очень
душно
1011.4 988.4
03 17.01 З 2 6000 м 9/9 330 м
[Sc]
+26.0 +24.6 92 +37 +37 очень
душно
1009.9 987.0
06 17.01 штиль 0 6000 м 9/9 330 м
[Sc]
+26.0 +24.6 92 +37 +37 очень
душно
1010.3 987.4 +20.0
09 17.01 З 3 6000 м 4/4 400 м
[Sc]
+27.8 +23.8 79 +38 +42 очень
душно
1011.8 989.0
12 17.01 СЗ 2 6000 м 6/6 400 м
[Cu med, cong]
+32.7 +24.0 60 +44 +52 опасность
перегрева
1009.8 987.4
15 17.01 З 2 6000 м 6/6 450 м
[Cu med, cong]
+35.5 +22.0 46 +44 +48 опасность
перегрева
1006.6 984.4
18 17.01 ЮЗ 2 6000 м 8/8 450 м
[Cu med, cong]
+33.0 +23.4 57 +44 +44 опасность
перегрева
1007.0 984.6 +38.4
21 17.01 ЮЗ 2 6000 м 3/0
[Ac trans]
+27.2 +24.1 83 +38 +38 очень
душно
1010.0 987.2
00 18.01 Ю 1 6000 м 6/0
[Ac As]
+25.6 +23.9 90 +35 +35 очень
душно
1011.4 988.0
03 18.01 ЮЗ 4 6000 м 5/3 400 м
[Sc Ac trans]
+25.0 +23.6 92 +34 +34 очень
душно
1010.0 987.0
06 18.01 ЮЗ 2 6000 м 9/9 400 м
[Sc]
+24.7 +24.0 96 +34 +34 очень
душно
1010.2 987.2 +24.5
09 18.01 ЮЗ 4 8000 м 9/9 180 м
[Sc]
+26.5 +24.6 89 +37 +38 очень
душно
1012.3 989.3
12 18.01 Ю 2 8000 м 9/9 400 м
[Cu med, cong]
+30.7 +23.6 66 +42 +44 опасность
перегрева
1011.0 988.4
15 18.01 ЮЗ 2 8000 м 8/8 400 м
[Cu med, cong]
+33.2 +22.9 55 +43 +45 опасность
перегрева
1007.7 985.3
18 18.01 штиль 0 8000 м гроза, ливневой дождь 10/9 400 м
[Cb cap]
+24.0 +22.5 91 +31 +31 очень
душно
1010.6 987.5 +36.0 16
21 18.01 Ю 2 8000 м {гроза} ясно +23.9 +22.9 94 +32 +32 очень
душно
1011.8 988.6
00 19.01 З 1 8000 м {гроза} 8/8 400 м
[Sc]
+23.9 +23.8 99 +32 +32 очень
душно
1012.8 989.6 0.0
03 19.01 З 2 8000 м 9/9 400 м
[Sc]
+23.7 +23.3 98 1011.3
06 19.01 СЗ 1 8000 м 9/9 400 м
[Sc]
+23.5 +23.2 98 +31 +31 очень
душно
1011.6 988.4 +22.9 16
09 19.01 З 2 8000 м 6/6 400 м
[Sc]
+25.0 +23.4 91 +34 +36 очень
душно
1013.3 990.2
12 19.01 СЗ 1 8000 м 8/8 400 м
[Cu med, cong]
+30.0 +23.3 67 +40 +44 очень
душно
1012.2 989.5
15 19.01 Ю 2 8000 м 6/6 400 м
[Cu med, cong]
+33.2 +23.4 57 +44 +49 опасность
перегрева
1008.7 986.3
18 19.01 ЮЗ 1 8000 м 5/5 400 м
[Cb cap]
+30.0 +21.8 62 +39 +39 очень
душно
1009.0 986.3 +34.3
21 19.01 В 2 8000 м гроза без осадков 8/6 400 м
[Cb cap]
+24.5 +23.6 95 +33 +33 очень
душно
1012.8 989.7
00 20.01 В 2 8000 м {гроза, дождь} 8/8 400 м
[Sc]
+24.0 +23.9 99 +33 +33 очень
душно
1014.5 991.3 21
03 20.01 СЗ 2 8000 м {дождь} 9/9 400 м
[Sc]
+23.0 +23.0 100 +32 +32 очень
душно
1011.3 988.1
06 20.01 штиль 0 8000 м {дождь} 9/9 400 м
[Sc]
+22.9 +22.5 98 +31 +31 очень
душно
1012.6 989.3 +22.4 23
09 20.01 СВ 2 8000 м 8/3 400 м
[Sc Ac trans]
+25.3 +23.0 87 +34 +36 очень
душно
1014.6 991.5
12 20.01 СВ 1 10 км 5/3 400 м
[Cu med, cong Ac trans]
+30.3 +21.5 59 +38 +50 очень
душно
1012.5 989.8
15 20.01 штиль 0 10 км 5/5 400 м
[Cu med, cong]
+33.5 +21.1 48 +41 +48 опасность
перегрева
1009.2 986.8
18 20.01 штиль 0 10 км 4/4 400 м
[Cb cap]
+31.5 +21.3 55 +39 +40 очень
душно
1010.2 987.6 +33.5
21 20.01 Ю 2 10 км ясно +27.2 +23.8 82 +37 +37 очень
душно
1012.7 989.8
00 21.01 ЮЗ 1 8000 м 5/0
[Ac trans]
+25.4 +24.4 94 +35 +35 очень
душно
1013.0 990.0
03 21.01 С 24 8000 м 4/0 300 м
[Ac trans]
+25.0 +24.1 95 +34 +34 очень
душно
1012.0 989.1
06 21.01 ЮЗ 1 2000 м дымка ясно +24.0 +23.9 99 +33 +33 очень
душно
1012.5 989.4 +23.4
09 21.01 штиль 0 6000 м 4/4 400 м
[Cu med, cong]
+26.0 +23.8 88 +36 +41 очень
душно
1013.6 990.6
12 21.01 штиль 0 10 км 6/6 400 м
[Cu med, cong]
+30.5 +23.0 64 +40 +50 очень
душно
1011.7 989.0
15 21.01 С 3 10 км 8/8 300 м
[Cu med, cong]
+33.8 +21.5 49 +42 +44 опасность
перегрева
1008.5 986.1
18 21.01 С 2 10 км 8/8 400 м
[Cb cap]
+32.6 +21.9 53 +41 +41 опасность
перегрева
1009.0 986.5 +34.4
21 21.01 ЮЗ 2 8000 м 5/4 400 м
[Cu med, cong Ac As]
+26.0 +22.3 80 +34 +34 очень
душно
1012.1 989.1
00 22.01 штиль 0 8000 м ясно +24.5 +22.3 88 +32 +32 очень
душно
1012.0 988.9
03 22.01 штиль 0 8000 м ясно +23.5 +22.0 91 +30 +30 очень
душно
1010.5 987.3
06 22.01 штиль 0 8000 м ясно +23.0 +21.5 91 +31 +31 очень
душно
1011.1 987.9 +21.5
09 22.01 СЗ 3 900 м туман 10/10 400 м
[Sc]
+23.5 +23.2 98 +31 +31 очень
душно
1013.0 989.8
12 22.01 С 1 8000 м {туман} 9/9 400 м
[Cu med, cong]
+27.0 +22.6 77 +36 +38 очень
душно
1012.0 989.1
15 22.01 ЮВ 2 10 км ясно +32.0 +20.3 50 +39 +49 очень
душно
1008.7 986.2
18 22.01 ЮЗ 1 10 км ясно +30.7 +21.7 59 +39 +39 очень
душно
1008.3 985.7 +32.9
21 22.01 ЮЗ 2 10 км ясно +25.8 +22.4 82 +34 +34 очень
душно
1010.5 987.5
00 23.01 ЮЗ 1 8000 м ясно +24.3 +22.1 88 +32 +32 очень
душно
1011.1 988.0
03 23.01 ЮЗ 1 8000 м ясно +24.0 +22.2 90 +31 +31 очень
душно
1010.1 987.0
06 23.01 ЮЗ 2 8000 м туман ясно +23.6 +23.6 100 +32 +32 очень
душно
1010.3 987.8 +22.4
09 23.01 С 3 6000 м в посл. час туман 9/9 400 м
[Sc]
+24.5 +23.6 95 +33 +34 очень
душно
1012.7 989.6
12 23.01 СЗ 2 10 км {туман} 6/6 400 м
[Cu med, cong]
+30.0 +21.8 62 +39 +46 очень
душно
1011.2 988.5
15 23.01 ЮЗ 2 10 км 6/6 400 м
[Cu med, cong]
+33.0 +20.5 48 +40 +44 очень
душно
1008.0 985.6
18 23.01 В 1 10 км 3/3 400 м
[Cu med, cong]
+31.5 +21.3 55 +39 +40 очень
душно
1008.1 985.6 +33.6
21 23.01 штиль 0 8000 м ясно +26.8 +22.7 78 +35 +35 очень
душно
1010.6 987.7

 

Местоположение метеостанции Ганьоа (Кот-д'Ивуар): широта 6.13 долгота -5.95 высота над уровнем моря 210 м.

В архиве по умолчанию представлена погода в Ганьоа за последнюю неделю. Архивные данные за месяц целиком и за предыдущие месяцы, начиная с января 2011 года, Вы можете получить, выбрав интересующий диапазон дат из раскрывающегося списка и нажав кнопку "Ввод!".


*Определитесь, кто Вы:
робот инопланетянин человек

Внимание! Время в таблицах - всемирное. Для получения местного времени необходимо прибавить поправку, которая равна 0 ч.

Смотрите также архив погоды в соседних городах и на ближайших метеорологических станциях:

Погода в Далоа (Кот-д'Ивуар) (100 км)
Погода в Ямусукро (Кот-д'Ивуар) (108 км)
Погода в Сассандре (Кот-д'Ивуар) (132 км)
Погода в Димбокро (Кот-д'Ивуар) (150 км)
Погода в Сан-Педро (Кот-д'Ивуар) (172 км)
Погода в Буаке (Кот-д'Ивуар) (203 км)
Погода в Мане (Кот-д'Ивуар) (222 км)
Погода в Абиджане (Кот-д'Ивуар) (244 км)
Погода в Табу (Кот-д'Ивуар) (247 км)
Погода в Адиаке (Кот-д'Ивуар) (307 км)

Пояснения к столбцам:

Ветер - указаны скорость ветра в м/с - средняя за 10 мин, порывы в срок и между сроками (в фигурных скобках) и направление, откуда дует ветер: С - северный, СВ - северо-восточный, В - восточный, ЮВ - юго-восточный, Ю - южный, ЮЗ - юго-западный, З - западный, СЗ - северо-западный.
Видимость - горизонтальная дальность видимости в метрах или километрах. При видимости от 1 до 10 км при отсутствии осадков обычно наблюдается дымка, при ухудшении видимости до 1 км и менее - туман. В сухую погоду видимость может ухудшаться дымом, пылью или мглою.
Явления - указаны атмосферные явления, наблюдавшиеся в срок или в последний час перед сроком; фигурными скобками обозначены явления, наблюдавшиеся между сроками (за 1-3 часа до срока); квадратными скобками обозначены град или гололедные отложения с указанием их диаметра в мм.
Облачность - указаны через наклонную черту общая и нижняя облачность в баллах и высота нижней границы облаков в метрах; квадратными скобками обозначены формы облаков: Ci - перистые, Cs - перисто-слоистые, Cc - перисто-кучевые, Ac - высококучевые, As - высокослоистые, Sc - слоисто-кучевые, Ns - слоисто-дождевые, Cu - кучевые, Cb - кучево-дождевые. Подробнее классификацию облаков см. в Атласе облаков (PDF).
T - Температура воздуха - температура, измеренная на высоте 2 м над землей.
Td - Температура точки росы - температура, при понижении до которой содержащийся в воздухе водяной пар достигнет насыщения.
f - Относительная влажность воздуха - влажноcть воздуха, измеренная на высоте 2 м над землей.
Te - Эффективная температура - температура, которую ощущает одетый по сезону человек в тени. Характеристика душности погоды. При расчете учитывается влияние влажности воздуха и скорости ветра на теплоощущения человека.
Tes - Эффективная температура на солнце - температура, которую ощущает человек, с поправкой на солнечный нагрев. Характеристика знойности погоды. Зависит от высоты солнца над горизонтом, облачности и скорости ветра. Ночью, в пасмурную погоду, а также при ветре 12 м/с и более поправка равна нулю.
P - Атмосферное давление - приведенное к уровню моря атмосферное давление.
Po - Атмосферное давление - измеренное на уровне метеостанции атмосферное давление.
Tmin - Минимальная температура - минимум температуры воздуха на высоте 2 м над землей.
Tmax - Максимальная температура - максимум температуры воздуха на высоте 2 м над землей.
R - Количество осадков - Количество выпавших осадков за период времени, мм. При наведении курсора мыши на число - период времени, за который выпало указанное количество осадков.
R24 - Количество осадков - Количество выпавших осадков за 24 часа, мм.
S - Снежный покров - Высота снежного покрова, см. При наведении курсора мыши на число - состояние снежного покрова и степень покрытия местности в баллах.